Погода в Злихе

Погода в Злихе : погода сейчас, прогноз погоды и архив. Всё, что Вы хотите узнать о погоде в Злихе!

Поиск расширенной информации на нашем сайте:

Другие новости

Новости СМИ2

Главная страница сайта

Новости сайта

03.07.2017

Напоминаем, что на нашем специализированном сайте Метеоцентр.Азия вы можете получить высокодетализированные автоматические прогнозы погоды по пунктам России, СНГ и мира в авиационном формате (включающие направление и скорость ветра, видимость, явления погоды, количество и форму облачности, нижнюю и верхнюю границу облачности).


Погода в Злихе - сегодня

Время (UTC), дата Ветер
(°,м/с) 
Видим.   Явления Облачность Т
(°С)
Тd
(°С)
f(%) Тe
(°С)
Pmin
(гПа)
dP
(гПа)
Po
(мм)
O2
(г/м3)
Тmin Tmax R s Состояние
почвы
12 20.08.17 070 (В) 20000 м    4/4 1000 м 
[Cu hum]
+31.9 +6.1 20 +32  1017.7  -0.1  752  270           
15 20.08.17 тихо ()   20000 м    5/5 1000 м 
[Cu med, cong]
+27.7 +3.2 21 +28  1017.6  -0.4  751  274    +32.4       
18 20.08.17 тихо ()   н/о    ясно 
+23 +3 27 +23  1018.4  0.6  752  279    +32.4       
21 20.08.17 050 (СВ) н/о    ясно 
+19 +2.3 33 +21  1019  0.4  752  283           
00 21.08.17 070 (В) н/о    ясно 
+16.9 +2.3 37 +18  1019.7  0.5  752  285           
03 21.08.17 090 (В) 20000 м    ясно 
+20.6 +4 34 +21  1020.3  0.8  751  281           
06 21.08.17 090 (В) 20000 м    ясно 
+26.9 +1.9 20 +27  1020.4  0.5  753  276  +14.1         
09 21.08.17 070 (В) 20000 м    3/0 верхняя 
[Ci fib]
+29.9 +1.3 16 +30  1019.1  -1.2  753  273           
12 21.08.17 070 (В) 20000 м    6/0 верхняя 
[Ci]
+30.8 +1.1 15 +31  1017.7  -1.2  752  272           
15 21.08.17 070 (В) 20000 м    8/0 верхняя 
[Ci fib]
+26.9 -0.9 16 +27  1017.3  -0.7  751  276    +31.3       
18 21.08.17 тихо ()   н/о    ясно 
+19.4 +0.9 29 +19  1018.1  0.4  751  283    +31.3       
21 21.08.17 тихо ()   н/о    ясно 
+15.9 +1.1 37 +16  1018.7  0.4  752  286           
00 22.08.17 050 (СВ) н/о    ясно 
+13.5 +1.1 43 +15  1018.5  -0.3  752  288           
03 22.08.17 070 (В) 20000 м    6/0 средняя 
[Ac lent]
+19.9 +0.4 27 +20  1018.8  0.5  751  282           
06 22.08.17 090 (В) 17-20{2}  20000 м    6/0 верхняя 
[Ci]
+26.3 +4.3 24 +26  1018.4  0.1  752  276  +13         
09 22.08.17 070 (В) 17-20{20}  20000 м    6/0 верхняя 
[Ci sp]
+29.9 +0.4 15 +30  1016.8  -1.4  751  273           
12 22.08.17 070 (В) 17-20{20}  20000 м    4/0 верхняя 
[Ci sp]
+29 -0.5 15 +29  1016  -0.8  750  273    +3.5       
15 22.08.17 090 (В) 7{20}  20000 м    4/0 верхняя 
[Ci fib]
+27.1 -1.7 15 +27  1016.6  0.4  751  275    +31.1       
18 22.08.17 070 (В) н/о    ясно 
+21.3 +4.3 33 +21  1017.6  0.8  751  280    +31.1       
21 22.08.17 050 (СВ) н/о    ясно 
+18.4 -0.7 27 +19  1018.1  0.3  751  284           
00 23.08.17 070 (В) н/о    ясно 
+18.1 -0.7 28 +18  1018.6  0.4  752  284           
03 23.08.17 070 (В) 20000 м    ясно 
+21.6 +0.9 25 +22  1020.2  1.7  753  281           
06 23.08.17 090 (В) 16-18{18}  20000 м    ясно 
+28 +1.3 18 +28  1020.1  0.3  753  275  +17.8         
09 23.08.17 070 (В) 16-18{18}  20000 м    ясно 
+31.3 -0.7 13 +31  1019.1  -0.8  753  272           
12 23.08.17 070 (В) 10{18}  20000 м    ясно 
+31.7 -3 10 +32  1018.3  -0.8  752  272           
Время (UTC), дата Ветер
(°,м/с) 
Видим.   Явления Облачность Т
(°С)
Тd
(°С)
f(%) Тe
(°С)
Pmin
(гПа)
dP
(гПа)
Po
(мм)
O2
(г/м3)
Тmin Tmax R s Состояние
почвы

Для получения пояснительной информации подведите курсор к названию столбца.

ПОГОДА в Злихе - архив

Всё, что Вы хотите узнать о погоде в Злихе - удобно и подробно!

Выберите нужную дату (начиная с 1 января 2015* года) и нажмите кнопку "Найти".
Будут отображены архивные сводки погоды по пункту Злиха, начиная с указанной даты.


Отображать данные в формате CSV (для использования в таблицах Excel)


Внимание! Наш архив погоды предназначен исключительно для личного некоммерческого использования в познавательных целях. Если Вам необходимы официальные справки о состоянии погоды (для производственных, юридических, коммерческих и т.п. целей), обращайтесь в органы Росгидромета.

*Примечание: данная дата относится к архиву по метеостанциям СССР (Россия, СНГ, Балтия).
Архив по метеостанциям Зарубежной Европы и Азии (кроме Китая) хранится 10 дней, по другим регионам земного шара (Китай, Африка, Америка, Австралия, Океания) - 1 день.

Злиха - район местоположения метеостанции


Название, широта, долгота, высота метеостанции:
Злиха 45.2°ш. 67.1°д. 138 м над ур. моря [Казахстан]

Дополнительная информация

В oтличие oт бoльшинства пoгoдных сайтoв мы публикуем пoдрoбную метеoинфoрмацию в детальнoм прoфессиoнальнoм фoрмате.

Характеристики температуры и влажнoсти вoздуха измеряются на высoте 2 м в тени вдали oт зданий и деревьев.
Скoрoсть ветра измеряется на высoте 10 м (на урoвне рoста челoвека скoрoсть ветра ниже в 1.5-2 раза). Если метеoстанция нахoдится в гoрoде или в лесу, тo скoрoсть ветра занижена на 2-4 м/с пo сравнению с oткрытым местoм. Скoрoсть ветра над акватoриями крупных рек и oзёр, а также на вершинах хoлмoв на 2-5 м/с выше, чем в oбычных услoвиях.
Атмoсфернoе давление в разных тoчках местнoсти мoжет значительнo oтличаться oт давления на метеoстанции, в зависимoсти oт услoвий рельефа (при пoдъёме на 10 м давление пoнижается примернo на 1 мм рт.ст.).